Moab, UT

6:35 AM MDT on March 28, 2017 (GMT -0600)
Canyonlands

Weather History for KCNY - September, 2013

Change the Weather History Date:

Saturday, September 28, 2013

  Actual Average Record
Temperature  
Mean Temperature 49 °F 62 °F  
Max Temperature 65 °F 77 °F 94 °F (1933)
Min Temperature 33 °F 47 °F 33 °F (1937)
Degree Days  
Heating Degree Days 16 4  
Month to date heating degree days 42 47  
Since 1 July heating degree days 42 48  
Cooling Degree Days 0 1  
Month to date cooling degree days 176 117  
Year to date cooling degree days 1643 1283  
Moisture  
Dew Point 23 °F    
Average Humidity 42    
Maximum Humidity 64    
Minimum Humidity 19    
Precipitation  
Precipitation 0.00 in 0.03 in 1.14 in (1962)
Month to date precipitation 1.06 0.91  
Year to date precipitation 4.96 6.29  
Sea Level Pressure  
Sea Level Pressure 30.19 in    
Wind  
Wind Speed 4 mph (NW)    
Max Wind Speed 10 mph    
Max Gust Speed 15 mph    
Visibility 10 miles    
Events      
T = Trace of Precipitation, MM = Missing Value Source: NWS Daily Summary

Daily Weather History Graph

Daily Weather History Graph

Search for Another Location

Airport or City:

Trip Planner

Search our weather history database for the weather conditions in past years. The results will help you decide how hot, cold, wet, or windy it might be!

Date:

Astronomy

Sep. 28, 2013 Rise Set
Actual Time 7:12 AM MDT 7:05 PM MDT
Civil Twilight 6:45 AM MDT 7:32 PM MDT
Nautical Twilight 6:15 AM MDT 8:03 PM MDT
Astronomical Twilight 5:43 AM MDT 8:34 PM MDT
Moon 1:06 AM MDT 3:24 PM MDT
Length of Visible Light 12h 46m
Length of Day
11h 53m
Waning Crescent, 35% of the Moon is Illuminated
Sep 28
Waning Crescent
Oct 4
New
Oct 11
First Quarter
Oct 18
Full
Oct 26
Last Quarter

Hourly Weather History & Observations

Time (MDT) Temp. Windchill Dew Point Humidity Pressure Visibility Wind Dir Wind Speed Gust Speed Precip Events Conditions
12:53 AM 42.1 °F 37.7 °F 23.0 °F 47% 30.14 in 10.0 mi West 6.9 mph - N/A   Clear
1:53 AM 44.1 °F 42.5 °F 23.0 °F 43% 30.14 in 10.0 mi Variable 3.5 mph - N/A   Clear
2:53 AM 39.9 °F 35.1 °F 23.0 °F 51% 30.16 in 10.0 mi North 6.9 mph - N/A   Clear
3:53 AM 39.9 °F 35.8 °F 23.0 °F 51% 30.17 in 10.0 mi NNW 5.8 mph - N/A   Clear
4:53 AM 37.9 °F 35.5 °F 24.1 °F 57% 30.18 in 10.0 mi West 3.5 mph - N/A   Clear
5:53 AM 37.9 °F 34.4 °F 24.1 °F 57% 30.19 in 10.0 mi West 4.6 mph - N/A   Clear
6:53 AM 35.1 °F - 24.1 °F 64% 30.23 in 10.0 mi Calm Calm - N/A   Clear
7:53 AM 39.9 °F - 26.1 °F 58% 30.24 in 10.0 mi Calm Calm - N/A   Clear
8:53 AM 46.0 °F - 30.0 °F 54% 30.25 in 10.0 mi Calm Calm - N/A   Clear
9:53 AM 50.0 °F - 28.9 °F 44% 30.26 in 10.0 mi SE 6.9 mph - N/A   Clear
10:53 AM 53.1 °F - 28.0 °F 38% 30.26 in 10.0 mi SE 6.9 mph - N/A   Clear
11:53 AM 54.0 °F - 25.0 °F 33% 30.25 in 10.0 mi Calm Calm - N/A   Clear
1:53 PM 57.9 °F - 25.0 °F 28% 30.21 in 10.0 mi Variable 3.5 mph - N/A   Clear
2:53 PM 61.0 °F - 25.0 °F 25% 30.19 in 10.0 mi Variable 3.5 mph - N/A   Clear
3:53 PM 62.1 °F - 21.9 °F 21% 30.17 in 10.0 mi Calm Calm - N/A   Clear
4:53 PM 63.0 °F - 19.9 °F 19% 30.16 in 10.0 mi NNW 5.8 mph - N/A   Clear
5:53 PM 63.0 °F - 21.0 °F 20% 30.16 in 10.0 mi East 4.6 mph - N/A   Clear
6:53 PM 61.0 °F - 19.9 °F 21% 30.17 in 10.0 mi NNW 3.5 mph - N/A   Clear
7:53 PM 55.9 °F - 16.0 °F 21% 30.17 in 10.0 mi NNW 6.9 mph - N/A   Clear
8:53 PM 53.1 °F - 15.1 °F 22% 30.17 in 10.0 mi North 5.8 mph - N/A   Clear
9:53 PM 48.0 °F - 18.0 °F 30% 30.17 in 10.0 mi WSW 3.5 mph - N/A   Clear
10:53 PM 44.1 °F 42.5 °F 17.1 °F 34% 30.17 in 10.0 mi West 3.5 mph - N/A   Clear
11:53 PM 45.0 °F 43.5 °F 19.9 °F 37% 30.17 in 10.0 mi WSW 3.5 mph - N/A   Clear